Miscellaneous Local Product
Issued by NWS North Platte, NE

Home | Current Version | Previous Version | Text Only | Print | Product List | Glossary On
Versions: 1 2 3 4 5 6 7 8 9 10 11 12 13 14 15 16 17 18 19 20 21 22 23 24 25 26 27 28 29 30 31 32 33 34 35 36 37 38 39 40 41 42 43 44 45 46 47 48 49 50
000
AXUS43 KLBF 222310
MISLBF


WESTERN AND NORTH CENTRAL NEBRASKA HOURLY WEATHER ROUNDUP
NATIONAL WEATHER SERVICE NORTH PLATTE NE
600 PM CDT WED OCT 22 2014

***STATIONS NOT REPORTING VARIABLES SUCH AS SKY/WEATHER OR
PRESSURE ARE PROVIDED BY THE NEBRASKA DEPARTMENT OF
ROADS...RAWS...AND APRS NETWORKS...AND ARE NOT UNDER
NATIONAL WEATHER SERVICE QUALITY CONTROL***

...OBSERVATIONS IN AND NEAR THE EASTERN PANHANDLE OF NEBRASKA...

CITY           SKY/WX    TMP DP  RH WIND       PRES   REMARKS
PINE RIDGE     CLEAR     62  30  29 W12       30.02S
CHADRON        CLEAR     63  29  27 NW9       30.01F
ALLIANCE       PTCLDY    63  33  32 N7        30.02F
SIDNEY         PTCLDY    62  34  35 N7        30.07R
WHITECLAY        N/A     61  30  31 W6          N/A
RUSHVILLE        N/A     61  24  24 NW10        N/A
CRESCENT LAKE    N/A     60  28  29 N5G14       N/A
LISCO            N/A     70  15  12 SW6         N/A
BIG SPRINGS      N/A     69  30  23 NW7         N/A
LEWELLEN         N/A     73  17  12 CALM        N/A
$$

...OBSERVATIONS IN NORTH CENTRAL NEBRASKA...

CITY           SKY/WX    TMP DP  RH WIND       PRES   REMARKS
VALENTINE      CLEAR     64  40  41 NW5       30.00S
THEDFORD       CLEAR     65  44  45 N5        30.02R
AINSWORTH      CLEAR     62  43  50 NW5       30.01S
O`NEILL        CLOUDY    58  55  88 CALM      30.01S
ORD            CLOUDY    62  57  83 NW5       30.00S
BROKEN BOW     PTCLDY    64  55  72 N6        30.01S
BROWNLEE         N/A     67  39  36 S5          N/A
SPRINGVIEW       N/A     65  49  56 W3          N/A
BREWSTER         N/A     68  52  57 CALM        N/A
ROSE             N/A     63  54  73 MISG        N/A
NEWPORT          N/A     61  51  70 CALM        N/A
SARGENT          N/A     60  55  84 CALM        N/A
COMSTOCK         N/A     67  62  84 CALM        N/A
CHAMBERS         N/A     58  53  82 CALM        N/A
$$

...OBSERVATIONS IN SOUTHWEST NEBRASKA AND FAR NORTHEAST COLORADO...

CITY           SKY/WX    TMP DP  RH WIND       PRES   REMARKS
WRAY           FAIR      71  37  28 MISG      30.04S
HOLYOKE        FAIR      70  32  24 N7        30.05S
IMPERIAL       CLEAR     70  40  33 N9        30.02S
OGALLALA       CLEAR     69  30  23 NW7       30.03R
NORTH PLATTE   CLEAR     68  51  54 SE5       30.00R
MCCOOK         CLEAR     69  51  52 NE7       30.00S
LEXINGTON      CLEAR     67  55  65 CALM      30.00S
PAXTON           N/A     71  39  30 W6          N/A
SUTHERLAND       N/A     75  27  17 W5          N/A
BRADY            N/A     67  53  61 CALM        N/A
GOTHENBURG       N/A     69  50  50 CALM        N/A
CALLAWAY         N/A     65  56  74 E3          N/A
$$

...SOME WEATHER OBSERVATIONS FROM AROUND THE REGION...

CITY           SKY/WX    TMP DP  RH WIND       PRES   REMARKS
DENVER         PTSUNNY   65  36  34 NW8       30.08R
LARAMIE        SUNNY     54  22  28 W18G28    30.15R
CHEYENNE       CLOUDY    63  29  27 W13       30.10R
SCOTTSBLUFF    SUNNY     66  22  18 NW14G23   30.02S
RAPID CITY     CLEAR     63  33  32 SE3       29.99S
PIERRE         CLEAR     64  41  42 NW7       29.93S
WINNER         FAIR      64  42  44 NW8       29.98R
SIOUX FALLS    LGT RAIN  59  57  93 S6        29.96R FOG
OMAHA          MOCLDY    72  54  53 SE17      29.99S
GRAND ISLAND   CLOUDY    62  60  93 CALM      30.01R
KANSAS CITY    PTCLDY    69  57  65 SE12      30.09S
WICHITA        CLOUDY    75  52  44 S14       30.04S
HAYS           CLOUDY    66  55  68 S21G26    30.00R
LIBERAL        SUNNY     73  55  53 S16       30.01S
GOODLAND       CLEAR     71  45  39 NE7       30.03S
$$



USA.gov is the U.S. government's official web portal to all federal, state and local government web resources and services.